| time (UTC) | temp C | wind direction | speed KPH | gust KPH | rain 1hr cm | rain 24hr cm | rain mn cm | humidity % | barometer mb |
| 20260831115445 | 16 | 231 | 0.0 | 3.2 | 0.00 | 0.00 | 0.00 | 99 | 1025.5 |
| 20260831114945 | 16 | 220 | 3.2 | 4.8 | 0.00 | 0.00 | 0.00 | 99 | 1025.5 |
| 20260831114443 | 16 | 226 | 3.2 | 4.8 | 0.00 | 0.00 | 0.00 | 99 | 1025.4 |
| 20260831113939 | 16 | 127 | 0.0 | 0.0 | 0.00 | 0.00 | 0.00 | 99 | 1025.7 |
| 20260831113438 | 16 | 104 | 0.0 | 0.0 | 0.00 | 0.00 | 0.00 | 99 | 1025.5 |
| 20260831112934 | 16 | 118 | 0.0 | 0.0 | 0.00 | 0.00 | 0.00 | 99 | 1025.4 |
| 20260831112434 | 16 | 84 | 0.0 | 0.0 | 0.00 | 0.00 | 0.00 | 99 | 1025.4 |
| 20260831111929 | 16 | 81 | 0.0 | 0.0 | 0.00 | 0.00 | 0.00 | 99 | 1025.5 |
| 20260831111425 | 16 | 187 | 0.0 | 0.0 | 0.00 | 0.00 | 0.00 | 99 | 1025.4 |
| 20260831110921 | 16 | 81 | 0.0 | 0.0 | 0.00 | 0.00 | 0.00 | 99 | 1025.3 |
| 20260831110415 | 16 | 27 | 0.0 | 0.0 | 0.00 | 0.00 | 0.00 | 99 | 1025.2 |
| 20260831105914 | 16 | 26 | 0.0 | 0.0 | 0.00 | 0.00 | 0.00 | 99 | 1025.2 |
| 20260831105409 | 16 | 26 | 0.0 | 0.0 | 0.00 | 0.00 | 0.00 | 99 | 1025.3 |
| 20260831104904 | 16 | 26 | 0.0 | 0.0 | 0.00 | 0.00 | 0.00 | 99 | 1025.3 |
| 20260831104400 | 16 | 26 | 0.0 | 0.0 | 0.00 | 0.00 | 0.00 | 99 | 1025.2 |
| 20260831103855 | 16 | 26 | 0.0 | 0.0 | 0.00 | 0.00 | 0.00 | 99 | 1025.1 |
| 20260831103351 | 16 | 26 | 0.0 | 0.0 | 0.00 | 0.00 | 0.00 | 99 | 1025.1 |
| 20260831102846 | 16 | 26 | 0.0 | 0.0 | 0.00 | 0.00 | 0.00 | 99 | 1025.2 |
| 20260831102341 | 16 | 26 | 0.0 | 0.0 | 0.00 | 0.00 | 0.00 | 99 | 1025.0 |
| 20260831101837 | 16 | 358 | 0.0 | 0.0 | 0.00 | 0.00 | 0.00 | 99 | 1025.0 |
| 20260831101332 | 16 | 47 | 0.0 | 0.0 | 0.00 | 0.00 | 0.00 | 99 | 1024.9 |
| 20260831100829 | 16 | 47 | 0.0 | 0.0 | 0.00 | 0.00 | 0.00 | 99 | 1024.8 |
| 20260831100324 | 16 | 47 | 0.0 | 0.0 | 0.00 | 0.00 | 0.00 | 99 | 1024.9 |
| 20260831095824 | 16 | 43 | 0.0 | 0.0 | 0.00 | 0.00 | 0.00 | 99 | 1024.9 |
| 20260831095318 | 16 | 43 | 0.0 | 0.0 | 0.00 | 0.00 | 0.00 | 99 | 1024.9 |
| 20260831094813 | 16 | 249 | 0.0 | 1.6 | 0.00 | 0.00 | 0.00 | 99 | 1025.0 |
| 20260831094308 | 16 | 187 | 0.0 | 0.0 | 0.00 | 0.00 | 0.00 | 99 | 1024.8 |
| 20260831093804 | 16 | 182 | 0.0 | 0.0 | 0.00 | 0.00 | 0.00 | 99 | 1025.0 |
| 20260831093304 | 16 | 207 | 0.0 | 0.0 | 0.00 | 0.00 | 0.00 | 99 | 1024.7 |
| 20260831092801 | 16 | 147 | 0.0 | 0.0 | 0.00 | 0.00 | 0.00 | 99 | 1024.9 |
| 20260831092256 | 16 | 147 | 0.0 | 0.0 | 0.00 | 0.00 | 0.00 | 99 | 1024.9 |
| 20260831091755 | 16 | 113 | 0.0 | 0.0 | 0.00 | 0.00 | 0.00 | 99 | 1024.7 |
| 20260831091251 | 16 | 113 | 0.0 | 0.0 | 0.00 | 0.00 | 0.00 | 99 | 1024.8 |
| 20260831090746 | 17 | 114 | 0.0 | 0.0 | 0.00 | 0.00 | 0.00 | 99 | 1024.7 |
| 20260831090242 | 16 | 114 | 0.0 | 0.0 | 0.00 | 0.00 | 0.00 | 99 | 1024.8 |
| 20260831085738 | 17 | 113 | 0.0 | 0.0 | 0.00 | 0.00 | 0.00 | 99 | 1024.7 |
| 20260831085233 | 17 | 113 | 0.0 | 0.0 | 0.00 | 0.00 | 0.00 | 99 | 1024.8 |
| 20260831084728 | 17 | 115 | 0.0 | 0.0 | 0.00 | 0.00 | 0.00 | 99 | 1024.7 |
| 20260831084224 | 17 | 116 | 0.0 | 0.0 | 0.00 | 0.00 | 0.00 | 99 | 1024.8 |
| 20260831083720 | 17 | 110 | 0.0 | 0.0 | 0.00 | 0.00 | 0.00 | 99 | 1024.7 |
| 20260831083216 | 17 | 110 | 0.0 | 0.0 | 0.00 | 0.00 | 0.00 | 99 | 1024.5 |
| 20260831082714 | 17 | 88 | 0.0 | 0.0 | 0.00 | 0.00 | 0.00 | 99 | 1024.7 |
| 20260831082204 | 17 | 91 | 0.0 | 0.0 | 0.00 | 0.00 | 0.00 | 99 | 1024.5 |
| 20260831081659 | 17 | 100 | 0.0 | 0.0 | 0.00 | 0.00 | 0.00 | 99 | 1024.4 |
| 20260831081154 | 17 | 107 | 0.0 | 0.0 | 0.00 | 0.00 | 0.00 | 99 | 1024.4 |
| 20260831080650 | 17 | 112 | 0.0 | 0.0 | 0.00 | 0.00 | 0.00 | 99 | 1024.5 |
| 20260831080150 | 17 | 341 | 0.0 | 1.6 | 0.00 | 0.00 | 0.00 | 99 | 1024.4 |
| 20260831075646 | 17 | 348 | 1.6 | 3.2 | 0.00 | 0.00 | 0.00 | 98 | 1024.3 |
| 20260831075141 | 17 | 175 | 0.0 | 6.4 | 0.00 | 0.00 | 0.00 | 98 | 1024.3 |
| 20260831074640 | 17 | 126 | 0.0 | 3.2 | 0.00 | 0.00 | 0.00 | 99 | 1024.4 |
| 20260831074135 | 17 | 229 | 1.6 | 3.2 | 0.00 | 0.00 | 0.00 | 98 | 1024.4 |
| 20260831073630 | 17 | 176 | 0.0 | 1.6 | 0.00 | 0.00 | 0.00 | 98 | 1024.3 |
| 20260831073129 | 17 | 175 | 1.6 | 3.2 | 0.00 | 0.00 | 0.00 | 99 | 1024.0 |
| 20260831072625 | 17 | 113 | 0.0 | 0.0 | 0.00 | 0.00 | 0.00 | 98 | 1024.1 |
| 20260831072122 | 17 | 109 | 0.0 | 1.6 | 0.00 | 0.00 | 0.00 | 98 | 1024.1 |
| 20260831071620 | 17 | 204 | 1.6 | 3.2 | 0.00 | 0.00 | 0.00 | 98 | 1024.2 |
| 20260831071115 | 17 | 186 | 1.6 | 3.2 | 0.00 | 0.00 | 0.00 | 98 | 1024.3 |
| 20260831070615 | 18 | 223 | 0.0 | 1.6 | 0.00 | 0.00 | 0.00 | 98 | 1024.4 |
| 20260831070109 | 18 | 229 | 0.0 | 4.8 | 0.00 | 0.00 | 0.00 | 97 | 1024.3 |
| 20260831065608 | 18 | 253 | 3.2 | 3.2 | 0.00 | 0.00 | 0.00 | 97 | 1024.2 |
| 20260831065102 | 18 | 220 | 3.2 | 6.4 | 0.00 | 0.00 | 0.00 | 97 | 1024.5 |
| 20260831064557 | 18 | 216 | 3.2 | 4.8 | 0.00 | 0.00 | 0.00 | 96 | 1024.4 |
| 20260831064052 | 18 | 160 | 3.2 | 6.4 | 0.00 | 0.00 | 0.00 | 97 | 1024.5 |
| 20260831063548 | 18 | 227 | 4.8 | 4.8 | 0.00 | 0.00 | 0.00 | 97 | 1024.5 |
| 20260831063048 | 18 | 235 | 0.0 | 3.2 | 0.00 | 0.00 | 0.00 | 97 | 1024.3 |
| 20260831062543 | 18 | 248 | 0.0 | 0.0 | 0.00 | 0.00 | 0.00 | 97 | 1024.4 |
| 20260831062042 | 18 | 289 | 0.0 | 1.6 | 0.00 | 0.00 | 0.00 | 97 | 1024.5 |
| 20260831061540 | 18 | 106 | 0.0 | 0.0 | 0.00 | 0.00 | 0.00 | 97 | 1024.3 |
| 20260831061038 | 18 | 105 | 0.0 | 0.0 | 0.00 | 0.00 | 0.00 | 97 | 1024.6 |
| 20260831060537 | 18 | 191 | 0.0 | 0.0 | 0.00 | 0.00 | 0.00 | 97 | 1024.8 |
| 20260831060028 | 18 | 172 | 0.0 | 0.0 | 0.00 | 0.00 | 0.00 | 97 | 1024.5 |
| 20260831055522 | 18 | 220 | 0.0 | 0.0 | 0.00 | 0.00 | 0.00 | 96 | 1024.8 |
| 20260831055018 | 18 | 128 | 0.0 | 0.0 | 0.00 | 0.00 | 0.00 | 96 | 1024.8 |
| 20260831054517 | 18 | 256 | 0.0 | 0.0 | 0.00 | 0.00 | 0.00 | 96 | 1024.9 |
| 20260831054016 | 18 | 105 | 0.0 | 0.0 | 0.00 | 0.00 | 0.00 | 96 | 1024.8 |
| 20260831053515 | 18 | 232 | 1.6 | 3.2 | 0.00 | 0.00 | 0.00 | 96 | 1024.9 |
| 20260831053010 | 18 | 245 | 1.6 | 4.8 | 0.00 | 0.00 | 0.00 | 95 | 1025.0 |
| 20260831052509 | 18 | 176 | 0.0 | 0.0 | 0.00 | 0.00 | 0.00 | 96 | 1024.9 |
| 20260831052008 | 18 | 132 | 0.0 | 1.6 | 0.00 | 0.00 | 0.00 | 96 | 1024.9 |
| 20260831051506 | 18 | 47 | 0.0 | 1.6 | 0.00 | 0.00 | 0.00 | 96 | 1025.0 |
| 20260831051001 | 18 | 352 | 0.0 | 0.0 | 0.00 | 0.00 | 0.00 | 96 | 1025.1 |
| 20260831050500 | 18 | 21 | 0.0 | 1.6 | 0.00 | 0.00 | 0.00 | 96 | 1025.2 |
| 20260831045959 | 19 | 337 | 0.0 | 0.0 | 0.00 | 0.00 | 0.00 | 95 | 1025.1 |
| 20260831045458 | 19 | 61 | 0.0 | 0.0 | 0.00 | 0.00 | 0.00 | 95 | 1025.1 |
| 20260831044954 | 19 | 61 | 0.0 | 0.0 | 0.00 | 0.00 | 0.00 | 94 | 1025.0 |
| 20260831044449 | 19 | 84 | 0.0 | 3.2 | 0.00 | 0.00 | 0.00 | 93 | 1024.8 |
| 20260831043945 | 19 | 227 | 1.6 | 3.2 | 0.00 | 0.00 | 0.00 | 93 | 1024.9 |
| 20260831043444 | 19 | 199 | 1.6 | 3.2 | 0.00 | 0.00 | 0.00 | 93 | 1025.2 |
| 20260831042940 | 19 | 260 | 3.2 | 4.8 | 0.00 | 0.00 | 0.00 | 93 | 1025.1 |
| 20260831042439 | 19 | 230 | 4.8 | 9.7 | 0.00 | 0.00 | 0.00 | 93 | 1025.2 |
| 20260831041939 | 19 | 278 | 1.6 | 1.6 | 0.00 | 0.00 | 0.00 | 94 | 1025.2 |
| 20260831041439 | 19 | 242 | 3.2 | 6.4 | 0.00 | 0.00 | 0.00 | 94 | 1025.1 |
| 20260831040934 | 19 | 196 | 0.0 | 0.0 | 0.00 | 0.00 | 0.00 | 94 | 1025.3 |
| 20260831040429 | 19 | 273 | 3.2 | 4.8 | 0.00 | 0.00 | 0.00 | 94 | 1025.4 |
| 20260831035926 | 19 | 175 | 3.2 | 6.4 | 0.00 | 0.03 | 0.03 | 94 | 1025.4 |
| 20260831035420 | 18 | 210 | 3.2 | 4.8 | 0.00 | 0.03 | 0.03 | 95 | 1025.2 |
| 20260831034921 | 18 | 228 | 4.8 | 6.4 | 0.00 | 0.03 | 0.03 | 96 | 1025.1 |
| 20260831034416 | 18 | 215 | 0.0 | 0.0 | 0.00 | 0.03 | 0.03 | 98 | 1025.3 |
| 20260831033911 | 17 | 289 | 1.6 | 3.2 | 0.00 | 0.03 | 0.03 | 98 | 1025.2 |
| 20260831033406 | 17 | 136 | 0.0 | 0.0 | 0.00 | 0.03 | 0.03 | 98 | 1025.2 |
| 20260831032902 | 18 | 189 | 0.0 | 0.0 | 0.00 | 0.03 | 0.03 | 98 | 1025.1 |
| 20260831032401 | 18 | 145 | 0.0 | 0.0 | 0.00 | 0.03 | 0.03 | 97 | 1025.2 |
| 20260831031857 | 18 | 137 | 0.0 | 0.0 | 0.00 | 0.03 | 0.03 | 97 | 1025.2 |
| 20260831031356 | 18 | 174 | 0.0 | 0.0 | 0.00 | 0.03 | 0.03 | 97 | 1025.1 |
| 20260831030851 | 18 | 132 | 0.0 | 0.0 | 0.00 | 0.03 | 0.03 | 97 | 1025.2 |
| 20260831030349 | 18 | 124 | 0.0 | 0.0 | 0.00 | 0.03 | 0.03 | 97 | 1025.2 |
| 20260831025843 | 18 | 116 | 0.0 | 0.0 | 0.00 | 0.03 | 0.03 | 97 | 1025.4 |
| 20260831025343 | 18 | 243 | 0.0 | 0.0 | 0.00 | 0.03 | 0.03 | 97 | 1025.2 |
| 20260831024839 | 18 | 187 | 0.0 | 0.0 | 0.00 | 0.03 | 0.03 | 96 | 1025.3 |
| 20260831024338 | 18 | 81 | 0.0 | 0.0 | 0.00 | 0.03 | 0.03 | 96 | 1025.1 |
| 20260831023837 | 18 | 83 | 0.0 | 1.6 | 0.00 | 0.03 | 0.03 | 96 | 1025.3 |
| 20260831023335 | 18 | 149 | 0.0 | 0.0 | 0.00 | 0.03 | 0.03 | 96 | 1025.2 |
| 20260831022831 | 18 | 123 | 0.0 | 0.0 | 0.00 | 0.03 | 0.03 | 96 | 1025.3 |
| 20260831022330 | 18 | 183 | 0.0 | 0.0 | 0.00 | 0.03 | 0.03 | 95 | 1025.3 |
| 20260831021825 | 19 | 203 | 1.6 | 3.2 | 0.00 | 0.03 | 0.03 | 94 | 1025.2 |
| 20260831021324 | 19 | 228 | 3.2 | 4.8 | 0.00 | 0.03 | 0.03 | 94 | 1025.2 |
| 20260831020821 | 19 | 166 | 0.0 | 1.6 | 0.00 | 0.03 | 0.03 | 95 | 1025.3 |
| 20260831020320 | 19 | 113 | 0.0 | 1.6 | 0.00 | 0.03 | 0.03 | 96 | 1025.1 |
| 20260831015816 | 19 | 113 | 0.0 | 0.0 | 0.00 | 0.03 | 0.03 | 95 | 1025.5 |
| 20260831015311 | 19 | 113 | 0.0 | 0.0 | 0.00 | 0.03 | 0.03 | 95 | 1025.4 |
| 20260831014806 | 19 | 113 | 0.0 | 1.6 | 0.00 | 0.03 | 0.03 | 94 | 1025.4 |
| 20260831014301 | 18 | 89 | 0.0 | 0.0 | 0.00 | 0.03 | 0.03 | 96 | 1025.7 |
| 20260831013757 | 18 | 16 | 0.0 | 0.0 | 0.00 | 0.03 | 0.03 | 96 | 1025.5 |
| 20260831013256 | 18 | 248 | 0.0 | 0.0 | 0.00 | 0.03 | 0.03 | 95 | 1025.5 |
| 20260831012751 | 18 | 150 | 0.0 | 0.0 | 0.00 | 0.03 | 0.03 | 95 | 1025.5 |
| 20260831012247 | 19 | 216 | 0.0 | 0.0 | 0.00 | 0.03 | 0.03 | 95 | 1025.4 |
| 20260831011746 | 19 | 72 | 0.0 | 1.6 | 0.00 | 0.03 | 0.03 | 94 | 1025.3 |
| 20260831011242 | 19 | 84 | 1.6 | 1.6 | 0.00 | 0.03 | 0.03 | 95 | 1025.3 |
| 20260831010737 | 19 | 239 | 0.0 | 1.6 | 0.00 | 0.03 | 0.03 | 93 | 1025.2 |
| 20260831010236 | 20 | 144 | 0.0 | 1.6 | 0.00 | 0.03 | 0.03 | 92 | 1025.0 |
| 20260831005732 | 19 | 129 | 0.0 | 1.6 | 0.00 | 0.03 | 0.03 | 94 | 1025.1 |
| 20260831005227 | 19 | 159 | 0.0 | 0.0 | 0.00 | 0.03 | 0.03 | 93 | 1025.1 |
| 20260831004722 | 19 | 159 | 0.0 | 0.0 | 0.00 | 0.03 | 0.03 | 93 | 1025.0 |
| 20260831004219 | 20 | 176 | 0.0 | 1.6 | 0.00 | 0.03 | 0.03 | 92 | 1024.7 |
| 20260831003714 | 20 | 257 | 0.0 | 1.6 | 0.00 | 0.03 | 0.03 | 91 | 1024.7 |
| 20260831003211 | 20 | 122 | 0.0 | 0.0 | 0.00 | 0.03 | 0.03 | 91 | 1024.5 |
| 20260831002710 | 20 | 121 | 0.0 | 0.0 | 0.00 | 0.03 | 0.03 | 90 | 1024.4 |
| 20260831002209 | 20 | 229 | 0.0 | 1.6 | 0.00 | 0.03 | 0.03 | 91 | 1024.4 |
| 20260831001706 | 20 | 120 | 0.0 | 3.2 | 0.00 | 0.03 | 0.03 | 89 | 1024.2 |
| 20260831001206 | 20 | 101 | 0.0 | 3.2 | 0.00 | 0.03 | 0.03 | 89 | 1024.2 |
| 20260831000702 | 21 | 145 | 3.2 | 3.2 | 0.00 | 0.03 | 0.03 | 90 | 1024.1 |
| 20260831000158 | 21 | 73 | 0.0 | 0.0 | 0.00 | 0.03 | 0.03 | 87 | 1023.9 |
| 20260830235656 | 21 | 87 | 1.6 | 1.6 | 0.00 | 0.03 | 0.03 | 87 | 1023.7 |
| 20260830235152 | 21 | 133 | 0.0 | 0.0 | 0.00 | 0.03 | 0.03 | 86 | 1023.7 |
| 20260830234646 | 22 | 65 | 0.0 | 1.6 | 0.00 | 0.03 | 0.03 | 85 | 1023.7 |
| 20260830234142 | 22 | 170 | 0.0 | 0.0 | 0.00 | 0.03 | 0.03 | 82 | 1023.9 |
| 20260830233637 | 23 | 191 | 0.0 | 0.0 | 0.00 | 0.03 | 0.03 | 80 | 1023.6 |
| 20260830233133 | 24 | 191 | 0.0 | 3.2 | 0.00 | 0.03 | 0.03 | 76 | 1023.9 |
| 20260830232629 | 24 | 115 | 3.2 | 4.8 | 0.00 | 0.03 | 0.03 | 68 | 1023.7 |
| 20260830232125 | 24 | 191 | 0.0 | 3.2 | 0.00 | 0.03 | 0.03 | 76 | 1023.7 |
| 20260830231621 | 25 | 110 | 6.4 | 6.4 | 0.00 | 0.03 | 0.03 | 71 | 1023.6 |
| 20260830231119 | 25 | 123 | 1.6 | 3.2 | 0.00 | 0.03 | 0.03 | 70 | 1023.6 |
| 20260830230615 | 26 | 116 | 3.2 | 4.8 | 0.00 | 0.03 | 0.03 | 66 | 1023.6 |
| 20260830230115 | 26 | 132 | 0.0 | 1.6 | 0.00 | 0.03 | 0.03 | 61 | 1023.6 |
| 20260830225610 | 27 | 125 | 1.6 | 6.4 | 0.00 | 0.03 | 0.03 | 62 | 1023.6 |
| 20260830225105 | 27 | 105 | 0.0 | 3.2 | 0.00 | 0.03 | 0.03 | 58 | 1023.6 |
| 20260830224603 | 28 | 133 | 0.0 | 1.6 | 0.00 | 0.03 | 0.03 | 59 | 1023.7 |
| 20260830224100 | 28 | 181 | 3.2 | 4.8 | 0.00 | 0.03 | 0.03 | 58 | 1023.7 |
| 20260830223557 | 29 | 113 | 0.0 | 0.0 | 0.00 | 0.03 | 0.03 | 67 | 1023.7 |
| 20260830223051 | 29 | 285 | 0.0 | 0.0 | 0.00 | 0.03 | 0.03 | 60 | 1023.6 |
| 20260830222551 | 28 | 264 | 3.2 | 3.2 | 0.00 | 0.03 | 0.03 | 62 | 1024.0 |
| 20260830222048 | 27 | 88 | 0.0 | 3.2 | 0.00 | 0.03 | 0.03 | 62 | 1024.1 |
| 20260830221543 | 27 | 306 | 1.6 | 1.6 | 0.00 | 0.03 | 0.03 | 62 | 1023.7 |
| 20260830221040 | 28 | 242 | 3.2 | 4.8 | 0.00 | 0.03 | 0.03 | 62 | 1023.9 |
| 20260830220539 | 28 | 251 | 0.0 | 4.8 | 0.00 | 0.03 | 0.03 | 61 | 1023.5 |
| 20260830220037 | 28 | 169 | 1.6 | 4.8 | 0.00 | 0.03 | 0.03 | 61 | 1024.0 |
| 20260830215531 | 28 | 258 | 3.2 | 4.8 | 0.00 | 0.03 | 0.03 | 61 | 1023.5 |
| 20260830215026 | 28 | 353 | 0.0 | 4.8 | 0.00 | 0.03 | 0.03 | 62 | 1023.5 |
| 20260830214521 | 30 | 18 | 1.6 | 4.8 | 0.00 | 0.03 | 0.03 | 57 | 1023.5 |
| 20260830214021 | 30 | 246 | 1.6 | 6.4 | 0.00 | 0.03 | 0.03 | 57 | 1023.4 |
| 20260830213516 | 30 | 129 | 0.0 | 0.0 | 0.00 | 0.03 | 0.03 | 55 | 1023.4 |
| 20260830213012 | 30 | 216 | 0.0 | 6.4 | 0.00 | 0.03 | 0.03 | 57 | 1023.4 |
| 20260830212507 | 30 | 271 | 1.6 | 3.2 | 0.00 | 0.03 | 0.03 | 52 | 1023.3 |
| 20260830212007 | 29 | 49 | 0.0 | 3.2 | 0.00 | 0.03 | 0.03 | 54 | 1023.3 |
| 20260830211502 | 29 | 228 | 3.2 | 4.8 | 0.00 | 0.03 | 0.03 | 57 | 1023.2 |
| 20260830210957 | 30 | 214 | 1.6 | 6.4 | 0.00 | 0.03 | 0.03 | 51 | 1023.1 |
| 20260830210457 | 29 | 213 | 1.6 | 4.8 | 0.00 | 0.03 | 0.03 | 54 | 1022.9 |
| 20260830205955 | 30 | 261 | 6.4 | 9.7 | 0.00 | 0.03 | 0.03 | 51 | 1023.0 |
| 20260830205454 | 30 | 161 | 0.0 | 4.8 | 0.00 | 0.03 | 0.03 | 54 | 1023.0 |
| 20260830204949 | 29 | 119 | 1.6 | 11.3 | 0.00 | 0.03 | 0.03 | 51 | 1022.8 |
| 20260830204448 | 30 | 261 | 3.2 | 9.7 | 0.00 | 0.03 | 0.03 | 53 | 1023.0 |
| 20260830203943 | 30 | 226 | 1.6 | 9.7 | 0.00 | 0.03 | 0.03 | 56 | 1023.0 |
| 20260830203440 | 29 | 175 | 3.2 | 6.4 | 0.00 | 0.03 | 0.03 | 56 | 1023.0 |
| 20260830202938 | 30 | 223 | 9.7 | 14.5 | 0.00 | 0.03 | 0.03 | 52 | 1023.2 |
| 20260830202434 | 30 | 320 | 3.2 | 6.4 | 0.00 | 0.03 | 0.03 | 51 | 1023.2 |
| 20260830201925 | 30 | 225 | 1.6 | 3.2 | 0.00 | 0.03 | 0.03 | 56 | 1023.3 |
| 20260830201423 | 30 | 56 | 3.2 | 4.8 | 0.00 | 0.03 | 0.03 | 61 | 1023.3 |
| 20260830200919 | 29 | 12 | 0.0 | 0.0 | 0.00 | 0.03 | 0.03 | 52 | 1023.3 |
| 20260830200419 | 28 | 145 | 3.2 | 4.8 | 0.00 | 0.03 | 0.03 | 55 | 1023.4 |
| 20260830195914 | 28 | 74 | 6.4 | 9.7 | 0.00 | 0.03 | 0.03 | 55 | 1023.4 |
| 20260830195414 | 28 | 84 | 3.2 | 3.2 | 0.00 | 0.03 | 0.03 | 53 | 1023.4 |
| 20260830194907 | 28 | 77 | 1.6 | 6.4 | 0.00 | 0.03 | 0.03 | 61 | 1023.6 |
| 20260830194406 | 27 | 93 | 3.2 | 6.4 | 0.00 | 0.03 | 0.03 | 59 | 1023.7 |
| 20260830193901 | 27 | 280 | 3.2 | 4.8 | 0.00 | 0.03 | 0.03 | 57 | 1024.0 |
| 20260830193400 | 28 | 212 | 4.8 | 6.4 | 0.00 | 0.03 | 0.03 | 56 | 1024.0 |
| 20260830192856 | 28 | 115 | 3.2 | 11.3 | 0.00 | 0.03 | 0.03 | 53 | 1023.9 |
| 20260830192355 | 29 | 177 | 1.6 | 9.7 | 0.00 | 0.03 | 0.03 | 54 | 1024.0 |
| 20260830191851 | 30 | 257 | 0.0 | 1.6 | 0.00 | 0.03 | 0.03 | 55 | 1024.1 |
| 20260830191351 | 29 | 210 | 1.6 | 3.2 | 0.00 | 0.03 | 0.03 | 48 | 1023.7 |
| 20260830190847 | 29 | 89 | 12.9 | 25.7 | 0.00 | 0.03 | 0.03 | 50 | 1023.9 |
| 20260830190342 | 30 | 120 | 4.8 | 6.4 | 0.00 | 0.03 | 0.03 | 50 | 1024.1 |
| 20260830185840 | 31 | 257 | 3.2 | 3.2 | 0.00 | 0.03 | 0.03 | 49 | 1023.9 |
| 20260830185336 | 30 | 251 | 3.2 | 4.8 | 0.00 | 0.03 | 0.03 | 56 | 1023.9 |
| 20260830184831 | 30 | 220 | 3.2 | 9.7 | 0.00 | 0.03 | 0.03 | 52 | 1024.1 |
| 20260830184330 | 30 | 102 | 8.0 | 11.3 | 0.00 | 0.03 | 0.03 | 49 | 1024.0 |
| 20260830183825 | 30 | 192 | 3.2 | 6.4 | 0.00 | 0.03 | 0.03 | 51 | 1024.2 |
| 20260830183324 | 29 | 216 | 3.2 | 3.2 | 0.00 | 0.03 | 0.03 | 53 | 1024.3 |
| 20260830182820 | 30 | 218 | 11.3 | 14.5 | 0.00 | 0.03 | 0.03 | 59 | 1024.6 |
| 20260830182316 | 29 | 251 | 3.2 | 4.8 | 0.00 | 0.03 | 0.03 | 55 | 1024.6 |
| 20260830181813 | 29 | 70 | 3.2 | 9.7 | 0.00 | 0.03 | 0.03 | 57 | 1024.7 |
| 20260830181308 | 29 | 13 | 0.0 | 4.8 | 0.00 | 0.03 | 0.03 | 53 | 1024.7 |
| 20260830180807 | 28 | 170 | 1.6 | 6.4 | 0.00 | 0.03 | 0.03 | 64 | 1024.8 |
| 20260830180301 | 28 | 238 | 4.8 | 6.4 | 0.00 | 0.03 | 0.03 | 65 | 1024.8 |
| 20260830175755 | 28 | 281 | 3.2 | 9.7 | 0.00 | 0.03 | 0.03 | 64 | 1025.1 |
| 20260830175250 | 28 | 136 | 0.0 | 0.0 | 0.00 | 0.03 | 0.03 | 63 | 1025.0 |
| 20260830174745 | 28 | 275 | 1.6 | 1.6 | 0.00 | 0.03 | 0.03 | 59 | 1024.9 |
| 20260830174241 | 27 | 95 | 6.4 | 6.4 | 0.00 | 0.03 | 0.03 | 65 | 1025.1 |
| 20260830173740 | 26 | 232 | 3.2 | 6.4 | 0.00 | 0.03 | 0.03 | 70 | 1025.2 |
| 20260830173235 | 27 | 235 | 1.6 | 4.8 | 0.00 | 0.03 | 0.03 | 66 | 1025.3 |
| 20260830172732 | 27 | 78 | 1.6 | 4.8 | 0.00 | 0.03 | 0.03 | 62 | 1025.1 |
| 20260830172229 | 27 | 97 | 3.2 | 4.8 | 0.00 | 0.03 | 0.03 | 63 | 1025.4 |
| 20260830171724 | 27 | 132 | 3.2 | 6.4 | 0.00 | 0.03 | 0.03 | 64 | 1025.7 |
| 20260830171219 | 27 | 209 | 4.8 | 6.4 | 0.00 | 0.03 | 0.03 | 67 | 1025.5 |
| 20260830170714 | 26 | 230 | 1.6 | 9.7 | 0.00 | 0.03 | 0.03 | 63 | 1025.4 |
| 20260830170213 | 27 | 176 | 3.2 | 3.2 | 0.00 | 0.03 | 0.03 | 65 | 1025.5 |
| 20260830165712 | 27 | 214 | 4.8 | 9.7 | 0.00 | 0.03 | 0.03 | 65 | 1025.7 |
| 20260830165208 | 27 | 187 | 4.8 | 14.5 | 0.00 | 0.03 | 0.03 | 68 | 1025.9 |
| 20260830164704 | 29 | 201 | 0.0 | 1.6 | 0.00 | 0.03 | 0.03 | 67 | 1025.7 |
| 20260830164200 | 28 | 82 | 0.0 | 1.6 | 0.00 | 0.03 | 0.03 | 68 | 1025.4 |
| 20260830163656 | 26 | 85 | 0.0 | 1.6 | 0.00 | 0.03 | 0.03 | 78 | 1025.7 |
| 20260830163156 | 26 | 53 | 1.6 | 1.6 | 0.00 | 0.03 | 0.03 | 75 | 1025.9 |
| 20260830162651 | 26 | 90 | 1.6 | 1.6 | 0.00 | 0.03 | 0.03 | 78 | 1025.8 |
| 20260830162147 | 26 | 245 | 0.0 | 1.6 | 0.00 | 0.03 | 0.03 | 73 | 1025.9 |
| 20260830161642 | 26 | 232 | 1.6 | 6.4 | 0.00 | 0.03 | 0.03 | 72 | 1025.9 |
| 20260830161137 | 27 | 172 | 3.2 | 9.7 | 0.00 | 0.03 | 0.03 | 71 | 1025.8 |
| 20260830160634 | 27 | 265 | 0.0 | 9.7 | 0.00 | 0.03 | 0.03 | 67 | 1025.8 |
| 20260830160133 | 28 | 186 | 6.4 | 11.3 | 0.00 | 0.03 | 0.03 | 71 | 1025.9 |
| 20260830155630 | 27 | 249 | 3.2 | 4.8 | 0.00 | 0.03 | 0.03 | 74 | 1026.0 |
| 20260830155125 | 28 | 243 | 3.2 | 4.8 | 0.00 | 0.03 | 0.03 | 76 | 1025.9 |
| 20260830154620 | 28 | 271 | 0.0 | 3.2 | 0.00 | 0.03 | 0.03 | 72 | 1026.0 |
| 20260830154116 | 27 | 158 | 0.0 | 4.8 | 0.00 | 0.03 | 0.03 | 79 | 1026.0 |
| 20260830153613 | 25 | 98 | 0.0 | 0.0 | 0.00 | 0.03 | 0.03 | 79 | 1025.9 |
| 20260830153112 | 26 | 86 | 1.6 | 3.2 | 0.00 | 0.03 | 0.03 | 77 | 1026.2 |
| 20260830152606 | 26 | 173 | 0.0 | 3.2 | 0.00 | 0.03 | 0.03 | 74 | 1026.0 |
| 20260830152105 | 26 | 227 | 6.4 | 9.7 | 0.00 | 0.03 | 0.03 | 75 | 1026.1 |
| 20260830151605 | 26 | 227 | 1.6 | 6.4 | 0.00 | 0.03 | 0.03 | 73 | 1025.9 |
| 20260830151100 | 26 | 260 | 3.2 | 4.8 | 0.00 | 0.03 | 0.03 | 75 | 1025.9 |
| 20260830150555 | 26 | 263 | 3.2 | 9.7 | 0.00 | 0.03 | 0.03 | 73 | 1025.9 |
| 20260830150050 | 26 | 217 | 4.8 | 9.7 | 0.00 | 0.03 | 0.03 | 74 | 1025.9 |
| 20260830145549 | 26 | 197 | 1.6 | 6.4 | 0.00 | 0.03 | 0.03 | 74 | 1026.0 |
| 20260830145044 | 26 | 299 | 1.6 | 11.3 | 0.00 | 0.03 | 0.03 | 77 | 1026.2 |
| 20260830144540 | 26 | 223 | 6.4 | 9.7 | 0.00 | 0.03 | 0.03 | 78 | 1026.0 |
| 20260830144036 | 26 | 229 | 1.6 | 4.8 | 0.00 | 0.03 | 0.03 | 80 | 1026.0 |
| 20260830143531 | 26 | 275 | 4.8 | 11.3 | 0.00 | 0.03 | 0.03 | 77 | 1026.1 |
| 20260830143029 | 25 | 205 | 6.4 | 11.3 | 0.00 | 0.03 | 0.03 | 79 | 1026.1 |
| 20260830142525 | 25 | 203 | 3.2 | 6.4 | 0.00 | 0.03 | 0.03 | 80 | 1026.1 |
| 20260830142020 | 25 | 231 | 6.4 | 6.4 | 0.00 | 0.03 | 0.03 | 80 | 1026.1 |
| 20260830141515 | 25 | 221 | 3.2 | 9.7 | 0.00 | 0.03 | 0.03 | 82 | 1026.0 |
| 20260830141015 | 25 | 230 | 0.0 | 4.8 | 0.00 | 0.03 | 0.03 | 79 | 1025.9 |
| 20260830140515 | 24 | 118 | 0.0 | 1.6 | 0.00 | 0.03 | 0.03 | 81 | 1026.0 |
| 20260830140011 | 25 | 97 | 3.2 | 4.8 | 0.00 | 0.03 | 0.03 | 85 | 1026.0 |
| 20260830135505 | 23 | 38 | 0.0 | 3.2 | 0.00 | 0.03 | 0.03 | 85 | 1026.2 |
| 20260830135000 | 24 | 72 | 0.0 | 0.0 | 0.00 | 0.03 | 0.03 | 86 | 1026.0 |
| 20260830134456 | 23 | 191 | 0.0 | 6.4 | 0.00 | 0.03 | 0.03 | 86 | 1026.2 |
| 20260830133951 | 23 | 64 | 1.6 | 3.2 | 0.00 | 0.03 | 0.03 | 85 | 1026.1 |
| 20260830133447 | 23 | 49 | 1.6 | 3.2 | 0.00 | 0.03 | 0.03 | 86 | 1026.2 |
| 20260830132942 | 22 | 108 | 0.0 | 1.6 | 0.00 | 0.03 | 0.03 | 88 | 1026.4 |
| 20260830132439 | 22 | 72 | 3.2 | 3.2 | 0.00 | 0.03 | 0.03 | 91 | 1026.2 |
| 20260830131937 | 22 | 36 | 0.0 | 0.0 | 0.00 | 0.03 | 0.03 | 90 | 1026.3 |
| 20260830131431 | 21 | 62 | 0.0 | 0.0 | 0.00 | 0.03 | 0.03 | 92 | 1026.6 |
| 20260830130926 | 21 | 47 | 0.0 | 3.2 | 0.00 | 0.03 | 0.03 | 93 | 1026.2 |
| 20260830130422 | 20 | 80 | 0.0 | 0.0 | 0.00 | 0.03 | 0.03 | 98 | 1026.6 |
| 20260830125921 | 20 | 53 | 0.0 | 3.2 | 0.00 | 0.03 | 0.03 | 99 | 1026.7 |
| 20260830125417 | 19 | 12 | 0.0 | 0.0 | 0.00 | 0.03 | 0.03 | 99 | 1026.7 |
| 20260830124914 | 18 | 73 | 0.0 | 0.0 | 0.00 | 0.03 | 0.03 | 99 | 1026.8 |
| 20260830124409 | 18 | 58 | 0.0 | 0.0 | 0.00 | 0.03 | 0.03 | 99 | 1026.8 |
| 20260830123906 | 18 | 49 | 0.0 | 0.0 | 0.00 | 0.03 | 0.03 | 99 | 1026.8 |
| 20260830123402 | 18 | 65 | 0.0 | 0.0 | 0.00 | 0.03 | 0.03 | 99 | 1026.8 |
| 20260830122859 | 17 | 75 | 0.0 | 0.0 | 0.00 | 0.03 | 0.03 | 99 | 1026.7 |
| 20260830122354 | 17 | 43 | 0.0 | 0.0 | 0.00 | 0.03 | 0.03 | 99 | 1026.7 |
| 20260830121850 | 17 | 54 | 0.0 | 0.0 | 0.00 | 0.03 | 0.03 | 99 | 1026.7 |
| 20260830121349 | 17 | 47 | 0.0 | 0.0 | 0.00 | 0.03 | 0.03 | 99 | 1026.9 |
| 20260830120845 | 16 | 56 | 0.0 | 0.0 | 0.00 | 0.03 | 0.03 | 99 | 1026.7 |
| 20260830120340 | 16 | 42 | 0.0 | 0.0 | 0.00 | 0.03 | 0.03 | 99 | 1026.7 |
| 20260830115836 | 16 | 42 | 0.0 | 0.0 | 0.00 | 0.03 | 0.03 | 99 | 1026.7 |